Weather History for PAHL - February, 2014

Change the Weather History Date:

Monday, February 24, 2014

  Actual Average Record
Temperature  
Mean Temperature 10 °F -  
Max Temperature 17 °F - - ()
Min Temperature 1 °F - - ()
Degree Days  
Heating Degree Days 55    
Moisture  
Dew Point -9 °F    
Average Humidity 42    
Maximum Humidity 61    
Minimum Humidity 32    
Precipitation  
Precipitation 0.00 in - - ()
Sea Level Pressure  
Sea Level Pressure 30.06 in    
Wind  
Wind Speed 8 mph (East)    
Max Wind Speed 14 mph    
Max Gust Speed 20 mph    
Visibility 10 miles    
Events      
Averages and records for this station are not official NWS values.
T = Trace of Precipitation, MM = Missing Value Source: NWS Daily Summary

Daily Weather History Graph

Daily Weather History Graph

Search for Another Location

Airport or City:

Trip Planner

Search our weather history database for the weather conditions in past years. The results will help you decide how hot, cold, wet, or windy it might be!

Date:

Astronomy

Feb. 24, 2014 Rise Set
Actual Time 8:54 AM AKST 6:23 PM AKST
Civil Twilight 8:02 AM AKST 7:15 PM AKST
Nautical Twilight 7:04 AM AKST 8:14 PM AKST
Astronomical Twilight 6:05 AM AKST 9:14 PM AKST
Moon 6:32 AM AKST (2/24) 12:08 PM AKST (2/24)
Length of Visible Light 11h 13m
Length of Day
9h 28m
Waning Crescent, 26% of the Moon is Illuminated
Feb 24
Waning Crescent
Feb 28
New
Mar 8
First Quarter
Mar 16
Full
Mar 23
Last Quarter

Hourly Weather History & Observations

Time (AKST) Temp. Windchill Dew Point Humidity Pressure Visibility Wind Dir Wind Speed Gust Speed Precip Events Conditions
12:16 AM 10.4 °F -4.1 °F -9.4 °F 41% 30.09 in 10.0 mi East 11.5 mph - N/A   Clear
12:36 AM 10.4 °F -4.1 °F -5.8 °F 48% 30.09 in 10.0 mi East 11.5 mph - N/A   Clear
12:56 AM 10.4 °F -4.1 °F -7.6 °F 44% 30.10 in 10.0 mi East 11.5 mph 17.3 mph N/A   Clear
1:16 AM 10.4 °F -2.4 °F -9.4 °F 41% 30.09 in 10.0 mi East 9.2 mph - N/A   Clear
1:36 AM 10.4 °F -4.1 °F -7.6 °F 44% 30.09 in 10.0 mi East 11.5 mph - N/A   Clear
1:56 AM 10.4 °F -2.4 °F -7.6 °F 44% 30.09 in 10.0 mi East 9.2 mph - N/A   Clear
2:16 AM 10.4 °F -0.4 °F -7.6 °F 44% 30.10 in 10.0 mi East 6.9 mph - N/A   Clear
2:36 AM 8.6 °F -4.7 °F -9.4 °F 44% 30.09 in 10.0 mi East 9.2 mph - N/A   Clear
2:56 AM 8.6 °F -2.6 °F -9.4 °F 44% 30.09 in 10.0 mi East 6.9 mph - N/A   Clear
3:16 AM 8.6 °F -3.7 °F -7.6 °F 48% 30.09 in 10.0 mi East 8.1 mph - N/A   Clear
3:36 AM 8.6 °F -3.7 °F -9.4 °F 44% 30.09 in 10.0 mi East 8.1 mph - N/A   Clear
3:56 AM 8.6 °F -4.7 °F -7.6 °F 48% 30.09 in 10.0 mi East 9.2 mph - N/A   Clear
4:16 AM 8.6 °F -3.7 °F -9.4 °F 44% 30.09 in 10.0 mi East 8.1 mph - N/A   Clear
4:36 AM 10.4 °F -2.4 °F -7.6 °F 44% 30.09 in 10.0 mi East 9.2 mph - N/A   Clear
4:56 AM 8.6 °F -5.5 °F -9.4 °F 44% 30.09 in 10.0 mi East 10.4 mph - N/A   Clear
5:16 AM 8.6 °F -5.5 °F -7.6 °F 48% 30.08 in 10.0 mi East 10.4 mph - N/A   Clear
5:36 AM 8.6 °F -4.7 °F -7.6 °F 48% 30.09 in 10.0 mi East 9.2 mph - N/A   Clear
5:56 AM 10.4 °F -3.3 °F -9.4 °F 41% 30.08 in 10.0 mi East 10.4 mph - N/A   Clear
6:16 AM 10.4 °F -4.1 °F -9.4 °F 41% 30.08 in 10.0 mi East 11.5 mph - N/A   Clear
6:36 AM 10.4 °F -4.1 °F -9.4 °F 41% 30.08 in 10.0 mi East 11.5 mph - N/A   Clear
6:56 AM 10.4 °F -4.1 °F -9.4 °F 41% 30.07 in 10.0 mi East 11.5 mph - N/A   Clear
7:16 AM 10.4 °F -4.1 °F -7.6 °F 44% 30.07 in 10.0 mi East 11.5 mph - N/A   Clear
7:36 AM 8.6 °F -6.3 °F -11.2 °F 40% 30.07 in 10.0 mi East 11.5 mph - N/A   Clear
7:56 AM 8.6 °F -6.3 °F -9.4 °F 44% 30.07 in 10.0 mi East 11.5 mph - N/A   Clear
8:16 AM 10.4 °F -3.3 °F -9.4 °F 41% 30.07 in 10.0 mi East 10.4 mph - N/A   Clear
8:36 AM 10.4 °F -5.4 °F -11.2 °F 37% 30.07 in 10.0 mi East 13.8 mph 18.4 mph N/A   Clear
8:56 AM 10.4 °F -4.1 °F -7.6 °F 44% 30.07 in 10.0 mi East 11.5 mph - N/A   Clear
9:16 AM 10.4 °F 0.8 °F -9.4 °F 41% 30.08 in 10.0 mi East 5.8 mph 17.3 mph N/A   Clear
9:36 AM 8.6 °F -1.3 °F -11.2 °F 40% 30.08 in 10.0 mi ENE 5.8 mph - N/A   Clear
9:56 AM 8.6 °F -1.3 °F -9.4 °F 44% 30.08 in 10.0 mi ENE 5.8 mph - N/A   Clear
10:16 AM 6.8 °F -3.5 °F -13.0 °F 40% 30.08 in 10.0 mi North 5.8 mph - N/A   Clear
10:36 AM 5.0 °F -5.6 °F -9.4 °F 52% 30.08 in 10.0 mi NNE 5.8 mph - N/A   Clear
10:56 AM 6.8 °F -3.5 °F -13.0 °F 40% 30.08 in 10.0 mi North 5.8 mph - N/A   Clear
11:16 AM 6.8 °F -2.0 °F -9.4 °F 48% 30.08 in 10.0 mi North 4.6 mph - N/A   Clear
11:36 AM 6.8 °F -3.5 °F -7.6 °F 52% 30.08 in 10.0 mi NNE 5.8 mph - N/A   Clear
11:56 AM 8.6 °F 0.1 °F -9.4 °F 44% 30.08 in 10.0 mi ENE 4.6 mph - N/A   Clear
12:16 PM 8.6 °F 2.0 °F -11.2 °F 40% 30.08 in 10.0 mi NE 3.5 mph - N/A   Clear
12:36 PM 10.4 °F 2.2 °F -5.8 °F 48% 30.08 in 10.0 mi NE 4.6 mph - N/A   Clear
12:56 PM 10.4 °F 4.0 °F -9.4 °F 41% 30.07 in 10.0 mi NNE 3.5 mph - N/A   Clear
1:16 PM 12.2 °F 6.1 °F -7.6 °F 41% 30.07 in 10.0 mi East 3.5 mph - N/A   Clear
1:36 PM 15.8 °F 7.2 °F -7.6 °F 35% 30.07 in 10.0 mi ENE 5.8 mph - N/A   Clear
1:56 PM 17.6 °F 6.4 °F -5.8 °F 35% 30.06 in 10.0 mi ENE 9.2 mph - N/A   Clear
2:16 PM 17.6 °F 5.0 °F -7.6 °F 32% 30.06 in 10.0 mi East 11.5 mph 19.6 mph N/A   Clear
2:36 PM 17.6 °F 9.3 °F -5.8 °F 35% 30.06 in 10.0 mi ESE 5.8 mph - N/A   Clear
2:56 PM 17.6 °F 10.7 °F -7.6 °F 32% 30.06 in 10.0 mi SE 4.6 mph - N/A   Clear
3:16 PM 17.6 °F 9.3 °F -5.8 °F 35% 30.06 in 10.0 mi ESE 5.8 mph - N/A   Clear
3:36 PM 17.6 °F 10.7 °F -7.6 °F 32% 30.05 in 10.0 mi SE 4.6 mph - N/A   Clear
3:56 PM 17.6 °F 10.7 °F -5.8 °F 35% 30.05 in 10.0 mi ESE 4.6 mph - N/A   Clear
4:16 PM 17.6 °F 10.7 °F -5.8 °F 35% 30.04 in 10.0 mi ESE 4.6 mph - N/A   Clear
4:36 PM 17.6 °F 12.3 °F -5.8 °F 35% 30.04 in 10.0 mi SE 3.5 mph - N/A   Clear
4:56 PM 17.6 °F 10.7 °F -7.6 °F 32% 30.04 in 10.0 mi East 4.6 mph - N/A   Clear
5:16 PM 17.6 °F 12.3 °F -5.8 °F 35% 30.03 in 10.0 mi ENE 3.5 mph - N/A   Clear
5:36 PM 15.8 °F 10.2 °F -7.6 °F 35% 30.03 in 10.0 mi SW 3.5 mph - N/A   Clear
5:56 PM 14.0 °F 6.5 °F -7.6 °F 38% 30.03 in 10.0 mi SW 4.6 mph - N/A   Clear
6:16 PM 12.2 °F 6.1 °F -9.4 °F 38% 30.03 in 10.0 mi South 3.5 mph - N/A   Clear
6:36 PM 12.2 °F - -9.4 °F 38% 30.02 in 10.0 mi Calm Calm - N/A   Clear
6:56 PM 12.2 °F - -7.6 °F 41% 30.02 in 10.0 mi Calm Calm - N/A   Clear
7:16 PM 12.2 °F 6.1 °F -9.4 °F 38% 30.03 in 10.0 mi South 3.5 mph - N/A   Clear
7:36 PM 12.2 °F - -7.6 °F 41% 30.03 in 10.0 mi Calm Calm - N/A   Clear
7:56 PM 10.4 °F - -9.4 °F 41% 30.03 in 10.0 mi Calm Calm - N/A   Clear
8:16 PM 10.4 °F - -9.4 °F 41% 30.03 in 10.0 mi Calm Calm - N/A   Clear
8:36 PM 10.4 °F - -7.6 °F 44% 30.03 in 10.0 mi Calm Calm - N/A   Clear
8:56 PM 8.6 °F 0.1 °F -7.6 °F 48% 30.03 in 10.0 mi NE 4.6 mph - N/A   Clear
9:16 PM 6.8 °F -3.5 °F -13.0 °F 40% 30.03 in 10.0 mi East 5.8 mph - N/A   Clear
9:36 PM 6.8 °F - -9.4 °F 48% 30.04 in 10.0 mi Calm Calm - N/A   Clear
9:56 PM 6.8 °F - -11.2 °F 44% 30.04 in 10.0 mi Calm Calm - N/A   Clear
10:16 PM 6.8 °F -0.1 °F -7.6 °F 52% 30.04 in 10.0 mi ESE 3.5 mph - N/A   Clear
10:36 PM 3.2 °F - -14.8 °F 43% 30.04 in 10.0 mi Calm Calm - N/A   Clear
10:56 PM 5.0 °F - -9.4 °F 52% 30.04 in 10.0 mi Calm Calm - N/A   Clear
11:16 PM 5.0 °F - -9.4 °F 52% 30.05 in 10.0 mi Calm Calm - N/A   Clear
11:36 PM 3.2 °F - -14.8 °F 43% 30.05 in 10.0 mi Calm Calm - N/A   Clear
11:56 PM 1.4 °F -6.2 °F -9.4 °F 61% 30.05 in 10.0 mi ENE 3.5 mph - N/A   Clear